Location: Northcutt
(34.7304°N, 84.4305°W)
Time: 15:08:38
(UTC+00:00)

S-56A Canister/Altair - All Passes

Search period start: 03 October 2022 00:00
Search period end: 13 October 2022 00:00
Orbit: 637 x 2496 km, 38.9° (Epoch: 02 October)

Date Brightness Start Highest point End Pass type
(mag) Time Alt. Az. Time Alt. Az. Time Alt. Az.
03 Oct - 03:04:47 10° S 03:13:37 19° SE 03:21:23 10° E night (unlit)
03 Oct - 05:05:47 10° SW 05:19:05 51° SSE 05:28:41 10° ENE night (unlit)
03 Oct - 07:12:13 10° WSW 07:24:40 85° NNW 07:32:45 10° ENE visible
03 Oct - 09:20:23 10° W 09:30:05 65° N 09:36:24 10° E visible
03 Oct - 11:27:20 10° WNW 11:34:42 79° SSW 11:39:49 10° ESE daylight
03 Oct - 13:34:13 10° W 13:37:37 17° SW 13:40:36 10° S daylight
04 Oct - 02:32:34 10° SSE 02:40:24 17° SE 02:47:31 10° ESE visible
04 Oct - 04:32:23 10° SSW 04:45:49 47° SE 04:55:53 10° ENE night (unlit)
04 Oct - 06:38:23 10° WSW 06:51:33 90° E 07:00:14 10° ENE visible
04 Oct - 08:46:38 10° W 08:57:10 66° N 09:03:58 10° E visible
04 Oct - 10:54:00 10° WNW 11:02:04 88° SSW 11:07:29 10° ESE visible
04 Oct - 13:00:43 10° W 13:05:12 22° SW 13:08:54 10° S daylight
05 Oct - 02:00:48 10° SSE 02:07:10 14° SE 02:13:10 10° ESE visible
05 Oct - 03:59:05 10° SSW 04:12:31 44° SE 04:23:00 10° ENE visible
05 Oct - 06:04:36 10° WSW 06:18:20 85° SSE 06:27:39 10° ENE visible
05 Oct - 08:12:49 10° W 08:24:10 68° N 08:31:30 10° E visible
05 Oct - 10:20:32 10° WNW 10:29:22 86° NNE 10:35:09 10° ESE visible
05 Oct - 12:27:18 10° W 12:32:46 28° SW 12:37:01 10° SSE daylight
06 Oct - 01:29:58 10° SSE 01:33:57 11° SE 01:37:51 10° ESE visible
06 Oct - 03:25:54 10° SSW 03:39:10 40° SE 03:49:59 10° E visible
06 Oct - 05:30:50 10° WSW 05:45:03 81° SSE 05:55:02 10° ENE visible
06 Oct - 07:38:56 10° W 07:51:05 70° N 07:59:00 10° ENE visible
06 Oct - 09:46:59 10° WNW 09:56:34 81° NNE 10:02:46 10° ESE visible
06 Oct - 11:53:53 10° WNW 12:00:19 35° SW 12:05:02 10° SSE daylight
07 Oct - 02:52:51 10° SSW 03:05:49 36° SE 03:16:51 10° E visible
07 Oct - 04:57:08 10° SW 05:11:43 76° SSE 05:22:19 10° ENE night (unlit)
07 Oct - 07:05:01 10° W 07:17:56 73° N 07:26:27 10° ENE visible
07 Oct - 09:13:19 10° WNW 09:23:42 77° NNE 09:30:21 10° E visible
07 Oct - 11:20:25 10° WNW 11:27:48 44° SW 11:32:58 10° SE daylight
08 Oct - 02:19:56 10° SSW 02:32:28 33° SE 02:43:33 10° E visible
08 Oct - 04:23:31 10° SW 04:38:19 72° SSE 04:49:32 10° ENE visible
08 Oct - 06:31:05 10° W 06:44:41 75° N 06:53:53 10° ENE visible
08 Oct - 08:39:34 10° WNW 08:50:44 75° N 08:57:54 10° E visible
08 Oct - 10:46:55 10° WNW 10:55:13 52° SW 11:00:49 10° SE visible
09 Oct - 01:47:12 10° S 01:59:06 29° SE 02:10:06 10° E visible
09 Oct - 03:49:59 10° SW 04:04:53 67° SSE 04:16:40 10° ENE visible
09 Oct - 05:57:10 10° W 06:11:22 78° NNW 06:21:14 10° ENE visible
09 Oct - 08:05:45 10° WNW 08:17:41 73° N 08:25:25 10° E visible
09 Oct - 10:13:21 10° WNW 10:22:34 61° SSW 10:28:37 10° SE visible
09 Oct - 12:22:32 10° WSW 12:25:08 12° SW 12:27:27 10° SSW daylight
10 Oct - 01:14:40 10° S 01:25:48 26° SE 01:36:27 10° E visible
10 Oct - 03:16:35 10° SW 03:31:24 62° SSE 03:43:41 10° ENE visible
10 Oct - 05:23:17 10° WSW 05:37:58 81° NNW 05:48:31 10° ENE visible
10 Oct - 07:31:52 10° W 07:44:33 72° N 07:52:51 10° E visible
10 Oct - 09:39:43 10° WNW 09:49:50 70° SSW 09:56:20 10° SE visible
10 Oct - 11:48:07 10° W 11:52:41 17° SW 11:56:26 10° S daylight
11 Oct - 00:42:21 10° S 00:52:30 23° SE 01:02:32 10° E visible
11 Oct - 02:43:17 10° SW 02:57:54 58° SE 03:10:38 10° ENE visible
11 Oct - 04:49:27 10° WSW 05:04:30 85° NNW 05:15:45 10° ENE visible
11 Oct - 06:57:57 10° W 07:11:20 72° N 07:20:16 10° E visible
11 Oct - 09:06:01 10° WNW 09:16:59 78° SSW 09:24:00 10° ESE visible
11 Oct - 11:14:07 10° W 11:20:14 23° SW 11:24:55 10° S visible
12 Oct - 00:10:20 10° SSE 00:19:16 19° SE 00:28:18 10° E visible
12 Oct - 02:10:07 10° SW 02:24:24 53° SE 02:37:26 10° ENE visible
12 Oct - 04:15:42 10° WSW 04:30:58 88° NNW 04:42:53 10° ENE visible
12 Oct - 06:24:01 10° W 06:38:00 72° N 06:47:37 10° E visible
12 Oct - 08:32:15 10° WNW 08:44:03 84° SSW 08:51:37 10° ESE visible
12 Oct - 10:40:13 10° W 10:47:42 29° SW 10:53:08 10° SSE visible
12 Oct - 23:38:45 10° SSE 23:46:05 16° SE 23:53:37 10° E visible
